{"data":{"norad_id":54855,"intl_designator":"2022-177AM","name":"STARLINK-5416","alt_names":[],"object_type":"PAYLOAD","status":"ACTIVE","operator":null,"country":"US","launch_date":"2022-12-28","launch_site_code":"AFETR","launch_vehicle":null,"mission":null,"orbit_class":"UNKNOWN","rcs_meters":null,"size_class":null,"mass_kg":null,"dimensions":null,"purposes":["comms"],"wikipedia_slug":null,"has_3d_model":false,"image_url":null,"decayed_at":null,"tle_current":{"epoch":"2026-09-20T22:23:46.124736Z","epoch_age_seconds":55892,"freshness":"FRESH","line1":"1 54855U 22177AM  26263.93317274 -.00001095  00000+0 -30283-4 0  9997","line2":"2 54855  43.0049  98.6899 0001542 269.1236  90.9439 15.27574534206958","mean_motion":15.27574534,"eccentricity":0.0001542,"inclination_deg":43.0049,"raan_deg":98.6899,"arg_perigee_deg":269.1236,"mean_anomaly_deg":90.9439,"bstar":-3.0283e-5,"rev_number":20695,"period_min":94.267086020956,"perigee_km":482.00746583901,"apogee_km":484.12346067868,"semimajor_km":6861.2024632588,"source":"CELESTRAK","updated_at":"2026-09-21T09:00:33.158516Z"}}}